DJ8HS-1 Weather Reports


time (UTC)temp
C
wind
direction
speed
KPH
gust
KPH
rain 1hr
cm
rain 24hr
cm
rain mn
cm
humidity
%
barometer
mb
20260506051206 13 253 0.0 0.0 0.00 0.00 0.00 93
20260506050706 13 253 0.0 0.0 0.00 0.00 0.00 94
20260506050205 13 253 0.0 0.0 0.00 0.00 0.00 94
20260506044705 13 253 0.0 0.0 0.00 0.00 0.00 95
20260506044204 13 253 0.0 0.0 0.00 0.00 0.00 95
20260506043704 13 253 0.0 0.0 0.00 0.00 0.00 95
20260506043204 13 253 0.0 0.0 0.00 0.00 0.00 95
20260506042703 13 253 0.0 0.0 0.00 0.00 0.00 95
20260506042203 13 253 0.0 0.0 0.00 0.00 0.00 95
20260506041703 13 253 0.0 0.0 0.00 0.00 0.00 95
20260506041202 13 253 0.0 0.0 0.00 0.00 0.00 95
20260506040702 13 253 0.0 0.0 0.00 0.00 0.00 95
20260506040202 13 253 0.0 0.0 0.00 0.00 0.00 95
20260506035702 12 253 0.0 0.0 0.00 0.00 0.00 95
20260506035201 13 253 0.0 0.0 0.00 0.00 0.00 95
20260506034701 13 253 0.0 0.0 0.00 0.00 0.00 95
20260506034201 12 253 0.0 0.0 0.00 0.00 0.00 95
20260506033700 12 253 0.0 0.0 0.00 0.00 0.00 95
20260506033200 13 253 0.0 0.0 0.00 0.00 0.00 95
20260506032700 13 253 0.0 0.0 0.00 0.00 0.00 95
20260506032200 13 253 0.0 0.0 0.00 0.00 0.00 95
20260506031659 13 253 0.0 0.0 0.00 0.00 0.00 95
20260506031159 13 253 0.0 0.0 0.00 0.00 0.00 95
20260506030659 13 253 0.0 0.0 0.00 0.00 0.00 95
20260506030158 13 253 0.0 0.0 0.00 0.00 0.00 95
20260506025658 13 253 0.0 0.0 0.00 0.00 0.00 94
20260506025158 13 253 0.0 0.0 0.00 0.00 0.00 94
20260506024657 13 253 0.0 0.0 0.00 0.00 0.00 93
20260506024157 13 253 0.0 0.0 0.00 0.00 0.00 93
20260506023657 13 253 0.0 0.0 0.00 0.00 0.00 93
20260506023157 13 253 0.0 0.0 0.00 0.00 0.00 94
20260506022656 13 253 0.0 0.0 0.00 0.00 0.00 94
20260506022156 13 253 0.0 0.0 0.00 0.00 0.00 94
20260506021656 13 253 0.0 0.0 0.00 0.00 0.00 94
20260506021155 13 253 0.0 0.0 0.00 0.00 0.00 94
20260506020655 13 253 0.0 0.0 0.00 0.00 0.00 95
20260506020155 13 253 0.0 0.0 0.00 0.00 0.00 95
20260506015655 13 253 0.0 0.0 0.00 0.00 0.00 95
20260506015154 13 253 0.0 0.0 0.00 0.00 0.00 95
20260506014654 13 253 0.0 0.0 0.00 0.00 0.00 95
20260506014154 13 253 0.0 0.0 0.00 0.00 0.00 95
20260506013653 13 253 0.0 0.0 0.00 0.00 0.00 95
20260506013153 13 253 0.0 0.0 0.00 0.00 0.00 95
20260506012653 13 253 0.0 0.0 0.00 0.00 0.00 94
20260506012153 13 253 0.0 0.0 0.00 0.00 0.00 94
20260506011652 13 253 0.0 0.0 0.00 0.00 0.00 94
20260506011152 13 253 0.0 3.2 0.00 0.00 0.00 94
20260506010652 13 223 0.0 4.8 0.00 0.00 0.00 93
20260506010151 13 264 4.8 4.8 0.00 0.00 0.00 93
20260506005651 13 202 0.0 3.2 0.00 0.00 0.00 93
20260506005151 13 220 0.0 0.0 0.00 0.00 0.00 94
20260506004150 13 220 0.0 4.8 0.00 0.00 0.00 94
20260506003650 13 202 0.0 0.0 0.00 0.00 0.00 94
20260506003150 13 202 0.0 4.8 0.00 0.00 0.00 94
20260506002649 14 180 0.0 0.0 0.00 0.00 0.00 94
20260506002149 14 180 0.0 0.0 0.00 0.00 0.00 95
20260506001649 14 180 0.0 0.0 0.00 0.00 0.00 95
20260506001148 14 180 0.0 4.8 0.00 0.00 0.00 95
20260506000648 14 248 0.0 6.4 0.00 0.00 0.00 95
20260506000148 14 219 0.0 3.2 0.00 0.00 0.00 95
20260505235648 14 253 0.0 4.8 0.00 0.00 0.00 95
20260505235147 14 230 0.0 0.0 0.00 0.00 0.00 95
20260505234647 14 230 0.0 0.0 0.00 0.00 0.00 95
20260505234147 15 230 0.0 0.0 0.00 0.00 0.00 95
20260505233646 14 230 0.0 0.0 0.00 0.00 0.00 94
20260505233146 15 230 0.0 0.0 0.00 0.00 0.00 94
20260505232646 14 230 0.0 0.0 0.00 0.00 0.00 94
20260505232145 14 230 0.0 0.0 0.00 0.00 0.00 94
20260505231645 14 230 0.0 0.0 0.00 0.00 0.00 94
20260505231145 14 230 0.0 0.0 0.00 0.00 0.00 94
20260505230645 15 230 0.0 0.0 0.00 0.00 0.00 94
20260505230144 14 230 0.0 0.0 0.00 0.00 0.00 94
20260505225644 14 230 0.0 0.0 0.00 0.00 0.00 93
20260505225144 14 230 0.0 0.0 0.00 0.00 0.00 92
20260505224643 14 230 0.0 0.0 0.00 0.00 0.00 92
20260505224143 15 230 0.0 0.0 0.00 0.00 0.00 92
20260505223643 15 230 0.0 0.0 0.00 0.00 0.00 91
20260505223143 15 230 0.0 0.0 0.00 0.00 0.00 91
20260505222642 15 230 0.0 0.0 0.00 0.00 0.00 91
20260505222142 15 230 0.0 0.0 0.00 0.00 0.00 91
20260505221642 15 230 0.0 0.0 0.00 0.00 0.00 91
20260505221142 15 230 0.0 0.0 0.00 0.00 0.00 90
20260505220645 15 230 0.0 0.0 0.00 0.00 0.00 90
20260505220141 15 230 0.0 0.0 0.00 0.00 0.00 90
20260505215640 15 230 0.0 0.0 0.00 0.00 0.00 90
20260505215140 15 230 0.0 0.0 0.00 0.00 0.00 90
20260505214640 15 230 0.0 0.0 0.00 0.00 0.00 91
20260505214140 15 230 0.0 0.0 0.00 0.00 0.00 91
20260505213639 15 230 0.0 0.0 0.00 0.00 0.00 91
20260505213139 15 230 0.0 0.0 0.00 0.00 0.00 91
20260505212639 15 230 0.0 0.0 0.00 0.00 0.00 91
20260505212138 15 230 0.0 0.0 0.00 0.00 0.00 91
20260505211638 15 230 0.0 0.0 0.00 0.00 0.00 91
20260505211138 15 230 0.0 0.0 0.00 0.00 0.00 90
20260505210637 15 230 0.0 0.0 0.00 0.00 0.00 90
20260505210137 15 230 0.0 0.0 0.00 0.00 0.00 90
20260505205637 15 230 0.0 0.0 0.00 0.00 0.00 89
20260505205137 15 230 0.0 0.0 0.00 0.00 0.00 89
20260505204636 15 230 0.0 0.0 0.00 0.00 0.00 89
20260505204136 15 230 0.0 0.0 0.00 0.00 0.00 88
20260505203636 15 230 0.0 0.0 0.00 0.00 0.00 88
20260505203135 15 230 0.0 0.0 0.00 0.00 0.00 88
20260505202635 15 230 0.0 0.0 0.00 0.00 0.00 88
20260505202135 15 230 0.0 0.0 0.00 0.00 0.00 88
20260505201635 15 230 0.0 0.0 0.00 0.00 0.00 88
20260505201134 15 230 0.0 0.0 0.00 0.00 0.00 87
20260505200634 15 230 0.0 0.0 0.00 0.00 0.00 87
20260505200134 15 230 0.0 0.0 0.00 0.00 0.00 87
20260505195633 15 230 0.0 0.0 0.00 0.00 0.00 87
20260505195133 15 230 0.0 0.0 0.00 0.00 0.00 86
20260505194633 15 230 0.0 0.0 0.00 0.00 0.00 85
20260505194133 15 230 0.0 0.0 0.00 0.00 0.00 85
20260505193632 15 230 0.0 0.0 0.00 0.00 0.00 85
20260505193132 15 230 0.0 0.0 0.00 0.00 0.00 85
20260505192632 15 230 0.0 0.0 0.00 0.00 0.00 84
20260505192131 15 230 0.0 0.0 0.00 0.00 0.00 84
20260505191631 15 230 0.0 0.0 0.00 0.00 0.00 84
20260505191131 15 230 0.0 0.0 0.00 0.00 0.00 84
20260505190630 16 230 0.0 0.0 0.00 0.00 0.00 85
20260505190130 16 230 0.0 0.0 0.00 0.00 0.00 84
20260505185630 16 230 0.0 0.0 0.00 0.00 0.00 84
20260505185129 16 230 0.0 0.0 0.00 0.00 0.00 83
20260505184629 15 230 0.0 0.0 0.00 0.00 0.00 84
20260505184129 15 230 0.0 0.0 0.00 0.00 0.00 83
20260505183629 16 230 0.0 0.0 0.00 0.00 0.00 83
20260505183128 16 230 0.0 0.0 0.00 0.00 0.00 83
20260505182628 16 230 0.0 0.0 0.00 0.00 0.00 83
20260505182128 16 230 0.0 0.0 0.00 0.00 0.00 82
20260505181627 16 230 0.0 0.0 0.00 0.00 0.00 82
20260505181127 16 230 0.0 0.0 0.00 0.00 0.00 82
20260505180627 16 230 0.0 0.0 0.00 0.00 0.00 81
20260505180127 16 230 0.0 0.0 0.00 0.00 0.00 81
20260505175626 16 230 0.0 0.0 0.00 0.00 0.00 81
20260505175126 16 230 0.0 0.0 0.00 0.00 0.00 81
20260505174626 16 230 0.0 0.0 0.00 0.00 0.00 81
20260505174125 16 230 0.0 0.0 0.00 0.00 0.00 81
20260505173625 16 230 0.0 0.0 0.00 0.00 0.00 80
20260505173125 16 230 0.0 0.0 0.00 0.00 0.00 80
20260505172625 16 230 0.0 0.0 0.00 0.00 0.00 80
20260505172124 16 230 0.0 0.0 0.00 0.00 0.00 80
20260505171624 16 230 0.0 0.0 0.00 0.00 0.00 80
20260505171124 16 230 0.0 0.0 0.00 0.00 0.00 80
20260505170623 16 230 0.0 0.0 0.00 0.00 0.00 80
20260505170123 16 230 0.0 0.0 0.00 0.00 0.00 80
20260505165623 16 230 0.0 0.0 0.00 0.00 0.00 80
20260505165122 16 230 0.0 0.0 0.00 0.00 0.00 80
20260505164622 16 230 0.0 0.0 0.00 0.00 0.00 81
20260505164122 16 230 0.0 0.0 0.00 0.00 0.00 81
20260505163622 16 230 0.0 0.0 0.00 0.00 0.00 82
20260505163121 16 230 0.0 0.0 0.00 0.00 0.00 82
20260505162621 16 230 0.0 0.0 0.00 0.00 0.00 81
20260505162121 16 230 0.0 1.6 0.00 0.00 0.00 81
20260505161620 16 226 0.0 3.2 0.00 0.00 0.00 81
20260505161120 16 244 0.0 0.0 0.00 0.00 0.00 81
20260505160620 16 244 0.0 1.6 0.00 0.00 0.00 81
20260505160120 16 250 0.0 3.2 0.00 0.00 0.00 81
20260505153118 16 192 1.6 6.4 0.00 0.00 0.00 82
20260505152617 16 270 0.0 3.2 0.00 0.00 0.00 81
20260505152117 16 227 0.0 3.2 0.00 0.00 0.00 81
20260505151619 16 202 0.0 6.4 0.00 0.00 0.00 81
20260505151117 16 240 3.2 3.2 0.00 0.00 0.00 80
20260505150616 16 275 0.0 8.0 0.00 0.00 0.00 80
20260505150116 16 229 0.0 8.0 0.00 0.00 0.00 80
20260505140613 17 185 1.6 6.4 0.00 0.00 0.00 75
20260505140112 17 284 0.0 3.2 0.00 0.00 0.00 74
20260505130109 19 303 0.0 3.2 0.00 0.00 0.00 64
20260505124608 19 293 3.2 6.4 0.00 0.00 0.00 61
20260505124108 20 251 3.2 9.7 0.00 0.00 0.00 59
20260505123607 20 203 3.2 8.0 0.00 0.00 0.00 56
20260505123107 20 298 1.6 9.7 0.00 0.00 0.00 54
20260505122607 20 275 3.2 6.4 0.00 0.00 0.00 53
20260505122107 20 260 0.0 6.4 0.00 0.00 0.00 51
20260505121606 20 216 0.0 6.4 0.00 0.00 0.00 51
20260505121106 20 212 1.6 4.8 0.00 0.00 0.00 51
20260505120606 20 191 0.0 4.8 0.00 0.00 0.00 51
20260505120105 20 205 0.0 8.0 0.00 0.00 0.00 51
20260505115605 21 286 3.2 6.4 0.00 0.00 0.00 50
20260505115105 21 157 1.6 8.0 0.00 0.00 0.00 49
20260505114604 21 239 4.8 8.0 0.00 0.00 0.00 49
20260505114104 21 248 4.8 8.0 0.00 0.00 0.00 49
20260505113604 22 237 3.2 9.7 0.00 0.00 0.00 48
20260505113104 21 112 0.0 8.0 0.00 0.00 0.00 48
20260505112603 21 270 4.8 4.8 0.00 0.00 0.00 47
20260505112103 22 220 0.0 6.4 0.00 0.00 0.00 47
20260505111603 22 163 1.6 11.3 0.00 0.00 0.00 44
20260505111102 23 257 3.2 6.4 0.00 0.00 0.00 41
20260505110602 23 247 3.2 8.0 0.00 0.00 0.00 39
20260505102100 24 25 0.0 8.0 0.00 0.00 0.00 38
20260505101559 24 232 1.6 8.0 0.00 0.00 0.00 39
20260505101059 23 209 1.6 6.4 0.00 0.00 0.00 40
20260505100559 23 206 1.6 4.8 0.00 0.00 0.00 39
20260505100058 23 213 0.0 4.8 0.00 0.00 0.00 39
20260505095558 23 265 0.0 3.2 0.00 0.00 0.00 39
20260505095058 23 229 3.2 4.8 0.00 0.00 0.00 38
20260505094557 24 236 0.0 4.8 0.00 0.00 0.00 37
20260505094057 24 198 1.6 4.8 0.00 0.00 0.00 37
20260505093557 25 206 1.6 3.2 0.00 0.00 0.00 38
20260505093057 24 189 3.2 4.8 0.00 0.00 0.00 38
20260505092556 24 212 4.8 4.8 0.00 0.00 0.00 40
20260505092056 25 182 0.0 8.0 0.00 0.00 0.00 39
20260505091556 25 126 1.6 6.4 0.00 0.00 0.00 39
20260505091055 25 213 4.8 4.8 0.00 0.00 0.00 39
20260505090555 25 223 0.0 4.8 0.00 0.00 0.00 41
20260505090055 24 151 3.2 4.8 0.00 0.00 0.00 41
20260505085556 23 167 3.2 6.4 0.00 0.00 0.00 42
20260505085054 23 182 3.2 8.0 0.00 0.00 0.00 43
20260505084554 23 246 0.0 6.4 0.00 0.00 0.00 43
20260505084054 23 181 0.0 3.2 0.00 0.00 0.00 45
20260505083553 23 244 0.0 6.4 0.00 0.00 0.00 44
20260505083053 23 267 1.6 4.8 0.00 0.00 0.00 46
20260505082553 22 217 0.0 6.4 0.00 0.00 0.00 48
20260505082055 22 208 3.2 6.4 0.00 0.00 0.00 49
20260505081552 22 168 1.6 6.4 0.00 0.00 0.00 50
20260505081052 22 225 0.0 6.4 0.00 0.00 0.00 50
20260505080552 21 216 0.0 4.8 0.00 0.00 0.00 51
20260505080052 21 233 1.6 6.4 0.00 0.00 0.00 52
20260505075551 21 132 1.6 6.4 0.00 0.00 0.00 55
20260505075051 21 213 3.2 4.8 0.00 0.00 0.00 57
20260505074550 20 178 0.0 6.4 0.00 0.00 0.00 58
20260505074050 19 199 0.0 1.6 0.00 0.00 0.00 65
20260505073550 18 233 0.0 4.8 0.00 0.00 0.00 71
20260505073049 17 247 0.0 0.0 0.00 0.00 0.00 74
20260505072549 17 247 0.0 0.0 0.00 0.00 0.00 75
20260505072049 16 247 0.0 0.0 0.00 0.00 0.00 75
20260505071549 16 247 0.0 3.2 0.00 0.00 0.00 76
20260505071048 16 239 0.0 0.0 0.00 0.00 0.00 77
20260505070548 16 239 0.0 0.0 0.00 0.00 0.00 78
20260505070048 16 239 0.0 0.0 0.00 0.00 0.00 78
20260505065547 15 239 0.0 0.0 0.00 0.00 0.00 79
20260505065047 15 239 0.0 0.0 0.00 0.00 0.00 79
20260505064547 15 239 0.0 3.2 0.00 0.00 0.00 79
20260505064046 15 202 0.0 0.0 0.00 0.00 0.00 79
20260505063546 15 202 0.0 0.0 0.00 0.00 0.00 80
20260505063046 15 217 0.0 4.8 0.00 0.00 0.00 80
20260505062546 15 35 0.0 0.0 0.00 0.00 0.00 79
20260505062045 15 35 0.0 0.0 0.00 0.00 0.00 80
20260505061545 15 35 0.0 0.0 0.00 0.00 0.00 80
20260505061045 15 35 0.0 0.0 0.00 0.00 0.00 80
20260505060544 15 35 0.0 0.0 0.00 0.00 0.00 81
20260505060044 14 35 0.0 0.0 0.00 0.00 0.00 80
20260505055544 14 35 0.0 0.0 0.00 0.00 0.00 80
20260505055043 14 35 0.0 0.0 0.00 0.00 0.00 80